Time,TemperatureF,DewpointF,PressureIn,WindDirection,WindDirectionDegrees,WindSpeedMPH,WindSpeedGustMPH,Humidity,HourlyPrecipIn,Conditions,Clouds,dailyrainin,SoftwareType,DateUTC
2013-01-21 00:03:00,2.0,-5.0,-100.00,West,280,7.0,10.0,74,-99.99,,,-99.99,,2013-01-21 05:03:00,
2013-01-21 00:12:00,2.0,-5.0,-100.00,West,280,7.0,10.0,74,-99.99,,,-99.99,,2013-01-21 05:12:00,
2013-01-21 00:22:00,2.0,-5.0,-100.00,WNW,290,11.0,15.0,72,-99.99,,,-99.99,,2013-01-21 05:22:00,
2013-01-21 00:34:00,0.0,-6.0,-100.00,WNW,285,4.0,10.0,74,-99.99,,,-99.99,,2013-01-21 05:34:00,
2013-01-21 00:42:00,0.0,-6.0,-100.00,WNW,285,4.0,10.0,74,-99.99,,,-99.99,,2013-01-21 05:42:00,
2013-01-21 00:52:00,0.0,-6.0,-100.00,West,280,7.0,11.0,76,-99.99,,,-99.99,,2013-01-21 05:52:00,
2013-01-21 01:03:00,0.0,-6.0,-100.00,WNW,285,9.0,14.0,73,-99.99,,,-99.99,,2013-01-21 06:03:00,
2013-01-21 01:12:00,0.0,-6.0,-100.00,WNW,285,9.0,14.0,73,-99.99,,,-99.99,,2013-01-21 06:12:00,
2013-01-21 01:23:00,0.0,-7.0,-100.00,WNW,295,10.0,14.0,73,-99.99,,,-99.99,,2013-01-21 06:23:00,
2013-01-21 01:33:00,0.0,-7.0,-100.00,WNW,295,9.0,15.0,72,-99.99,,,-99.99,,2013-01-21 06:33:00,
2013-01-21 01:43:00,0.0,-7.0,-100.00,WNW,295,9.0,15.0,72,-99.99,,,-99.99,,2013-01-21 06:43:00,
2013-01-21 01:52:00,0.0,-7.0,-100.00,WNW,285,9.0,16.0,73,-99.99,,,-99.99,,2013-01-21 06:52:00,
2013-01-21 02:03:00,0.0,-7.0,-100.00,WNW,285,9.0,16.0,73,-99.99,,,-99.99,,2013-01-21 07:03:00,
2013-01-21 02:22:00,-1.0,-7.0,-100.00,West,275,7.0,16.0,73,-99.99,,,-99.99,,2013-01-21 07:22:00,
2013-01-21 02:33:00,-1.0,-8.0,-100.00,WNW,285,10.0,17.0,72,-99.99,,,-99.99,,2013-01-21 07:33:00,
2013-01-21 02:42:00,-1.0,-8.0,-100.00,WNW,285,10.0,17.0,72,-99.99,,,-99.99,,2013-01-21 07:42:00,
2013-01-21 02:52:00,-1.0,-8.0,-100.00,WNW,290,9.0,15.0,73,-99.99,,,-99.99,,2013-01-21 07:52:00,
2013-01-21 03:03:00,-1.0,-8.0,-100.00,WNW,290,9.0,15.0,73,-99.99,,,-99.99,,2013-01-21 08:03:00,
2013-01-21 03:13:00,-1.0,-8.0,-100.00,WNW,290,9.0,15.0,73,-99.99,,,-99.99,,2013-01-21 08:13:00,
2013-01-21 03:23:00,-2.0,-8.0,-100.00,WNW,290,10.0,15.0,74,-99.99,,,-99.99,,2013-01-21 08:23:00,
2013-01-21 03:32:00,-2.0,-8.0,-100.00,WNW,285,9.0,15.0,74,-99.99,,,-99.99,,2013-01-21 08:32:00,
2013-01-21 03:42:00,-2.0,-8.0,-100.00,WNW,285,9.0,15.0,74,-99.99,,,-99.99,,2013-01-21 08:42:00,
2013-01-21 03:53:00,-2.0,-8.0,-100.00,WSW,255,8.0,14.0,72,-99.99,,,-99.99,,2013-01-21 08:53:00,
2013-01-21 04:03:00,-1.0,-8.0,-100.00,West,280,10.0,16.0,70,-99.99,,,-99.99,,2013-01-21 09:03:00,
2013-01-21 04:12:00,-1.0,-8.0,-100.00,West,280,10.0,16.0,70,-99.99,,,-99.99,,2013-01-21 09:12:00,
2013-01-21 04:23:00,-1.0,-9.0,-100.00,WNW,295,11.0,19.0,70,-99.99,,,-99.99,,2013-01-21 09:23:00,
2013-01-21 04:33:00,-1.0,-8.0,-100.00,WNW,285,9.0,18.0,71,-99.99,,,-99.99,,2013-01-21 09:33:00,
2013-01-21 04:42:00,-1.0,-8.0,-100.00,WNW,285,9.0,18.0,71,-99.99,,,-99.99,,2013-01-21 09:42:00,
2013-01-21 04:52:00,-1.0,-8.0,-100.00,WNW,285,10.0,16.0,71,-99.99,,,-99.99,,2013-01-21 09:52:00,
2013-01-21 05:02:00,-1.0,-8.0,-100.00,WNW,285,10.0,16.0,71,-99.99,,,-99.99,,2013-01-21 10:02:00,
2013-01-21 05:12:00,-1.0,-8.0,-100.00,WNW,285,10.0,16.0,71,-99.99,,,-99.99,,2013-01-21 10:12:00,
2013-01-21 05:22:00,-1.0,-8.0,-100.00,WNW,285,11.0,18.0,71,-99.99,,,-99.99,,2013-01-21 10:22:00,
2013-01-21 05:32:00,-1.0,-8.0,-100.00,WNW,285,14.0,18.0,70,-99.99,,,-99.99,,2013-01-21 10:32:00,
2013-01-21 05:43:00,-1.0,-8.0,-100.00,WNW,285,14.0,18.0,70,-99.99,,,-99.99,,2013-01-21 10:43:00,
2013-01-21 05:52:00,-1.0,-8.0,-100.00,WNW,290,13.0,20.0,70,-99.99,,,-99.99,,2013-01-21 10:52:00,
2013-01-21 06:03:00,-1.0,-8.0,-100.00,WNW,285,11.0,23.0,70,-99.99,,,-99.99,,2013-01-21 11:03:00,
2013-01-21 06:13:00,-1.0,-8.0,-100.00,WNW,285,11.0,23.0,70,-99.99,,,-99.99,,2013-01-21 11:13:00,
2013-01-21 06:23:00,-1.0,-9.0,-100.00,WNW,290,11.0,19.0,70,-99.99,,,-99.99,,2013-01-21 11:23:00,
2013-01-21 06:33:00,-1.0,-8.0,-100.00,WNW,285,13.0,18.0,71,-99.99,,,-99.99,,2013-01-21 11:33:00,
2013-01-21 06:43:00,-1.0,-8.0,-100.00,WNW,285,13.0,18.0,71,-99.99,,,-99.99,,2013-01-21 11:43:00,
2013-01-21 06:53:00,-1.0,-8.0,-100.00,WNW,290,11.0,19.0,71,-99.99,,,-99.99,,2013-01-21 11:53:00,
2013-01-21 07:02:00,-1.0,-9.0,-100.00,WNW,295,12.0,20.0,71,-99.99,,,-99.99,,2013-01-21 12:02:00,
2013-01-21 07:12:00,-1.0,-9.0,-100.00,WNW,295,12.0,20.0,71,-99.99,,,-99.99,,2013-01-21 12:12:00,
2013-01-21 07:22:00,-1.0,-8.0,-100.00,WNW,290,11.0,17.0,71,-99.99,,,-99.99,,2013-01-21 12:22:00,
2013-01-21 07:33:00,-1.0,-9.0,-100.00,WNW,290,14.0,20.0,70,-99.99,,,-99.99,,2013-01-21 12:33:00,
2013-01-21 07:42:00,-1.0,-9.0,-100.00,WNW,290,14.0,20.0,70,-99.99,,,-99.99,,2013-01-21 12:42:00,
2013-01-21 07:52:00,-1.0,-9.0,-100.00,WNW,290,12.0,18.0,71,-99.99,,,-99.99,,2013-01-21 12:52:00,
2013-01-21 08:03:00,-2.0,-9.0,-100.00,West,280,12.0,21.0,70,-99.99,,,-99.99,,2013-01-21 13:03:00,
2013-01-21 08:13:00,-2.0,-9.0,-100.00,West,280,12.0,21.0,70,-99.99,,,-99.99,,2013-01-21 13:13:00,
2013-01-21 08:23:00,-2.0,-9.0,-100.00,WNW,285,11.0,17.0,70,-99.99,,,-99.99,,2013-01-21 13:23:00,
2013-01-21 08:33:00,-2.0,-9.0,-100.00,WNW,285,10.0,19.0,70,-99.99,,,-99.99,,2013-01-21 13:33:00,
2013-01-21 08:43:00,-2.0,-9.0,-100.00,WNW,285,10.0,19.0,70,-99.99,,,-99.99,,2013-01-21 13:43:00,
2013-01-21 08:53:00,-2.0,-9.0,-100.00,WNW,285,11.0,19.0,71,-99.99,,,-99.99,,2013-01-21 13:53:00,
2013-01-21 09:03:00,-3.0,-10.0,-100.00,WNW,295,10.0,19.0,71,-99.99,,,-99.99,,2013-01-21 14:03:00,
2013-01-21 09:12:00,-3.0,-10.0,-100.00,WNW,295,10.0,19.0,71,-99.99,,,-99.99,,2013-01-21 14:12:00,
2013-01-21 09:23:00,-3.0,-10.0,-100.00,WNW,285,11.0,21.0,70,-99.99,,,-99.99,,2013-01-21 14:23:00,
2013-01-21 09:32:00,-3.0,-11.0,-100.00,WNW,285,14.0,21.0,69,-99.99,,,-99.99,,2013-01-21 14:32:00,
2013-01-21 09:43:00,-3.0,-11.0,-100.00,WNW,285,14.0,21.0,69,-99.99,,,-99.99,,2013-01-21 14:43:00,
2013-01-21 09:53:00,-3.0,-11.0,-100.00,WNW,290,14.0,22.0,68,-99.99,,,-99.99,,2013-01-21 14:53:00,
2013-01-21 10:03:00,-3.0,-11.0,-100.00,WNW,290,16.0,24.0,66,-99.99,,,-99.99,,2013-01-21 15:03:00,
2013-01-21 10:13:00,-3.0,-11.0,-100.00,WNW,290,16.0,24.0,66,-99.99,,,-99.99,,2013-01-21 15:13:00,
2013-01-21 10:23:00,-2.0,-12.0,-100.00,WNW,295,16.0,24.0,64,-99.99,,,-99.99,,2013-01-21 15:23:00,
2013-01-21 10:43:00,-2.0,-11.0,-100.00,WNW,295,14.0,26.0,63,-99.99,,,-99.99,,2013-01-21 15:43:00,
2013-01-21 10:53:00,-2.0,-12.0,-100.00,NW,305,16.0,29.0,61,-99.99,,,-99.99,,2013-01-21 15:53:00,
2013-01-21 11:03:00,-1.0,-12.0,-100.00,WNW,300,19.0,30.0,58,-99.99,,,-99.99,,2013-01-21 16:03:00,
2013-01-21 11:12:00,-1.0,-12.0,-100.00,WNW,300,19.0,30.0,58,-99.99,,,-99.99,,2013-01-21 16:12:00,
2013-01-21 11:23:00,-1.0,-12.0,-100.00,WNW,300,21.0,31.0,57,-99.99,,,-99.99,,2013-01-21 16:23:00,
2013-01-21 11:33:00,0.0,-12.0,-100.00,WNW,290,12.0,29.0,56,-99.99,,,-99.99,,2013-01-21 16:33:00,
2013-01-21 11:43:00,0.0,-12.0,-100.00,WNW,290,12.0,29.0,56,-99.99,,,-99.99,,2013-01-21 16:43:00,
2013-01-21 11:53:00,0.0,-13.0,-100.00,NW,310,17.0,31.0,54,-99.99,,,-99.99,,2013-01-21 16:53:00,
2013-01-21 12:03:00,0.0,-13.0,-100.00,NW,310,17.0,31.0,54,-99.99,,,-99.99,,2013-01-21 17:03:00,
2013-01-21 12:23:00,1.0,-13.0,-100.00,WNW,295,21.0,29.0,50,-99.99,,,-99.99,,2013-01-21 17:23:00,
2013-01-21 12:33:00,1.0,-13.0,-100.00,WNW,290,22.0,31.0,49,-99.99,,,-99.99,,2013-01-21 17:33:00,
2013-01-21 12:43:00,1.0,-13.0,-100.00,WNW,290,22.0,31.0,49,-99.99,,,-99.99,,2013-01-21 17:43:00,
2013-01-21 12:53:00,2.0,-12.0,-100.00,NW,310,18.0,33.0,51,-99.99,,,-99.99,,2013-01-21 17:53:00,
2013-01-21 13:03:00,2.0,-12.0,-100.00,WNW,285,16.0,26.0,49,-99.99,,,-99.99,,2013-01-21 18:03:00,
2013-01-21 13:12:00,2.0,-12.0,-100.00,WNW,285,16.0,26.0,49,-99.99,,,-99.99,,2013-01-21 18:12:00,
2013-01-21 13:22:00,2.0,-14.0,-100.00,NW,305,18.0,29.0,47,-99.99,,,-99.99,,2013-01-21 18:22:00,
2013-01-21 13:33:00,2.0,-14.0,-100.00,WNW,300,17.0,29.0,45,-99.99,,,-99.99,,2013-01-21 18:33:00,
2013-01-21 13:42:00,2.0,-14.0,-100.00,WNW,300,17.0,29.0,45,-99.99,,,-99.99,,2013-01-21 18:42:00,
2013-01-21 13:52:00,2.0,-15.0,-100.00,WNW,295,20.0,31.0,44,-99.99,,,-99.99,,2013-01-21 18:52:00,
2013-01-21 14:03:00,3.0,-15.0,-100.00,WNW,295,15.0,29.0,43,-99.99,,,-99.99,,2013-01-21 19:03:00,
2013-01-21 14:12:00,3.0,-15.0,-100.00,WNW,295,15.0,29.0,43,-99.99,,,-99.99,,2013-01-21 19:12:00,
2013-01-21 14:22:00,2.0,-16.0,-100.00,WNW,295,18.0,28.0,41,-99.99,,,-99.99,,2013-01-21 19:22:00,
2013-01-21 14:33:00,3.0,-13.0,-100.00,NW,305,13.0,28.0,47,-99.99,,,-99.99,,2013-01-21 19:33:00,
2013-01-21 14:43:00,3.0,-13.0,-100.00,NW,305,13.0,28.0,47,-99.99,,,-99.99,,2013-01-21 19:43:00,
2013-01-21 14:53:00,2.0,-15.0,-100.00,WNW,295,21.0,28.0,43,-99.99,,,-99.99,,2013-01-21 19:53:00,
2013-01-21 15:03:00,1.0,-17.0,-100.00,WNW,300,23.0,32.0,41,-99.99,,,-99.99,,2013-01-21 20:03:00,
2013-01-21 15:12:00,1.0,-17.0,-100.00,WNW,300,23.0,32.0,41,-99.99,,,-99.99,,2013-01-21 20:12:00,
2013-01-21 15:23:00,2.0,-17.0,-100.00,WNW,295,21.0,28.0,40,-99.99,,,-99.99,,2013-01-21 20:23:00,
2013-01-21 15:33:00,2.0,-15.0,-100.00,WNW,290,16.0,24.0,42,-99.99,,,-99.99,,2013-01-21 20:33:00,
2013-01-21 15:43:00,2.0,-15.0,-100.00,WNW,290,16.0,24.0,42,-99.99,,,-99.99,,2013-01-21 20:43:00,
2013-01-21 15:53:00,2.0,-16.0,-100.00,WNW,295,16.0,28.0,41,-99.99,,,-99.99,,2013-01-21 20:53:00,
2013-01-21 16:04:00,1.0,-16.0,-100.00,WNW,300,15.0,27.0,43,-99.99,,,-99.99,,2013-01-21 21:04:00,
2013-01-21 16:12:00,1.0,-16.0,-100.00,WNW,300,15.0,27.0,43,-99.99,,,-99.99,,2013-01-21 21:12:00,
2013-01-21 16:23:00,0.0,-18.0,-100.00,WNW,285,21.0,30.0,40,-99.99,,,-99.99,,2013-01-21 21:23:00,
2013-01-21 16:33:00,0.0,-16.0,-100.00,WNW,300,24.0,32.0,44,-99.99,,,-99.99,,2013-01-21 21:33:00,
2013-01-21 16:43:00,0.0,-16.0,-100.00,WNW,300,24.0,32.0,44,-99.99,,,-99.99,,2013-01-21 21:43:00,
2013-01-21 16:53:00,0.0,-16.0,-100.00,WNW,290,16.0,26.0,46,-99.99,,,-99.99,,2013-01-21 21:53:00,
2013-01-21 17:03:00,0.0,-16.0,-100.00,WNW,290,16.0,26.0,46,-99.99,,,-99.99,,2013-01-21 22:03:00,
2013-01-21 17:23:00,-1.0,-16.0,-100.00,WNW,300,13.0,28.0,47,-99.99,,,-99.99,,2013-01-21 22:23:00,
2013-01-21 17:33:00,-2.0,-15.0,-100.00,WNW,300,18.0,31.0,51,-99.99,,,-99.99,,2013-01-21 22:33:00,
2013-01-21 17:43:00,-2.0,-15.0,-100.00,WNW,300,18.0,31.0,51,-99.99,,,-99.99,,2013-01-21 22:43:00,
2013-01-21 17:52:00,-3.0,-18.0,-100.00,WNW,295,16.0,27.0,48,-99.99,,,-99.99,,2013-01-21 22:52:00,
2013-01-21 18:03:00,-3.0,-18.0,-100.00,WNW,295,16.0,27.0,48,-99.99,,,-99.99,,2013-01-21 23:03:00,
2013-01-21 18:13:00,-3.0,-18.0,-100.00,WNW,295,16.0,27.0,48,-99.99,,,-99.99,,2013-01-21 23:13:00,
2013-01-21 18:23:00,-5.0,-20.0,-100.00,WNW,295,16.0,24.0,45,-99.99,,,-99.99,,2013-01-21 23:23:00,
2013-01-21 18:33:00,-5.0,-20.0,-100.00,WNW,295,16.0,24.0,45,-99.99,,,-99.99,,2013-01-21 23:33:00,
2013-01-21 18:42:00,-5.0,-20.0,-100.00,WNW,295,16.0,24.0,45,-99.99,,,-99.99,,2013-01-21 23:42:00,
2013-01-21 18:53:00,-5.0,-20.0,-100.00,WNW,295,14.0,25.0,47,-99.99,,,-99.99,,2013-01-21 23:53:00,
2013-01-21 19:02:00,-5.0,-20.0,-100.00,WNW,295,13.0,22.0,48,-99.99,,,-99.99,,2013-01-22 00:02:00,
2013-01-21 19:12:00,-5.0,-20.0,-100.00,WNW,295,13.0,22.0,48,-99.99,,,-99.99,,2013-01-22 00:12:00,
2013-01-21 19:22:00,-6.0,-20.0,-100.00,WNW,295,14.0,23.0,49,-99.99,,,-99.99,,2013-01-22 00:22:00,
2013-01-21 19:33:00,-6.0,-20.0,-100.00,WNW,300,16.0,24.0,50,-99.99,,,-99.99,,2013-01-22 00:33:00,
2013-01-21 19:43:00,-6.0,-20.0,-100.00,WNW,300,16.0,24.0,50,-99.99,,,-99.99,,2013-01-22 00:43:00,
2013-01-21 19:53:00,-6.0,-20.0,-100.00,WNW,300,19.0,26.0,50,-99.99,,,-99.99,,2013-01-22 00:53:00,
2013-01-21 20:02:00,-6.0,-20.0,-100.00,WNW,290,12.0,20.0,49,-99.99,,,-99.99,,2013-01-22 01:02:00,
2013-01-21 20:12:00,-6.0,-20.0,-100.00,WNW,290,12.0,20.0,49,-99.99,,,-99.99,,2013-01-22 01:12:00,
2013-01-21 20:23:00,-7.0,-20.0,-100.00,WNW,290,9.0,20.0,51,-99.99,,,-99.99,,2013-01-22 01:23:00,
2013-01-21 20:32:00,-7.0,-20.0,-100.00,WNW,290,11.0,20.0,51,-99.99,,,-99.99,,2013-01-22 01:32:00,
2013-01-21 20:42:00,-7.0,-20.0,-100.00,WNW,290,11.0,20.0,51,-99.99,,,-99.99,,2013-01-22 01:42:00,
2013-01-21 20:52:00,-7.0,-21.0,-100.00,WNW,300,16.0,22.0,50,-99.99,,,-99.99,,2013-01-22 01:52:00,
2013-01-21 21:02:00,-7.0,-20.0,-100.00,WNW,285,9.0,19.0,51,-99.99,,,-99.99,,2013-01-22 02:02:00,
2013-01-21 21:12:00,-7.0,-20.0,-100.00,WNW,285,9.0,19.0,51,-99.99,,,-99.99,,2013-01-22 02:12:00,
2013-01-21 21:22:00,-7.0,-21.0,-100.00,West,275,8.0,20.0,51,-99.99,,,-99.99,,2013-01-22 02:22:00,
2013-01-21 21:32:00,-7.0,-21.0,-100.00,WNW,290,15.0,24.0,51,-99.99,,,-99.99,,2013-01-22 02:32:00,
2013-01-21 21:43:00,-7.0,-21.0,-100.00,WNW,290,15.0,24.0,51,-99.99,,,-99.99,,2013-01-22 02:43:00,
2013-01-21 21:53:00,-8.0,-21.0,-100.00,WNW,300,11.0,19.0,52,-99.99,,,-99.99,,2013-01-22 02:53:00,
2013-01-21 22:02:00,-8.0,-21.0,-100.00,WNW,295,14.0,23.0,53,-99.99,,,-99.99,,2013-01-22 03:02:00,
2013-01-21 22:12:00,-8.0,-21.0,-100.00,WNW,295,14.0,23.0,53,-99.99,,,-99.99,,2013-01-22 03:12:00,
2013-01-21 22:22:00,-9.0,-21.0,-100.00,WNW,290,8.0,15.0,54,-99.99,,,-99.99,,2013-01-22 03:22:00,
2013-01-21 22:32:00,-9.0,-21.0,-100.00,WNW,285,11.0,18.0,54,-99.99,,,-99.99,,2013-01-22 03:32:00,
2013-01-21 22:42:00,-9.0,-21.0,-100.00,WNW,285,11.0,18.0,54,-99.99,,,-99.99,,2013-01-22 03:42:00,
2013-01-21 22:52:00,-9.0,-21.0,-100.00,WNW,285,11.0,20.0,55,-99.99,,,-99.99,,2013-01-22 03:52:00,
2013-01-21 23:02:00,-9.0,-21.0,-100.00,WNW,285,9.0,15.0,56,-99.99,,,-99.99,,2013-01-22 04:02:00,
2013-01-21 23:12:00,-9.0,-21.0,-100.00,WNW,285,9.0,15.0,56,-99.99,,,-99.99,,2013-01-22 04:12:00,
2013-01-21 23:22:00,-10.0,-21.0,-100.00,West,265,9.0,16.0,56,-99.99,,,-99.99,,2013-01-22 04:22:00,
2013-01-21 23:32:00,-10.0,-21.0,-100.00,West,275,8.0,16.0,57,-99.99,,,-99.99,,2013-01-22 04:32:00,
2013-01-21 23:42:00,-10.0,-21.0,-100.00,West,275,8.0,16.0,57,-99.99,,,-99.99,,2013-01-22 04:42:00,
2013-01-21 23:52:00,-10.0,-21.0,-100.00,West,275,9.0,16.0,58,-99.99,,,-99.99,,2013-01-22 04:52:00,